Flag for Brazil Weather past 2 weeks in Belo Horizonte, Minas Gerais, Brazil

Now
57 °F

Clear.


Feels Like: 57 °F
Forecast: 60 / 73 °F
Wind: 3 mph from Southeast

Location: Belo Horizonte Airport

Current Time: May 23, 2015 at 6:53:21 AM

Latest Report: May 23, 2015 at 6:00 AM


Visibility: 10 mi

Pressure: 30.24 "Hg

Humidity: 88%

Dew point: 54 °F

Location of Belo HorizonteLocation

Historic Weather in Belo Horizonte — Graph

°F

Belo Horizonte temperature yesterday

Maximum temperature yesterday: 75 °F (at 1:00 PM)
Minimum temperature yesterday: 61 °F (at 5:00 AM)
Average temperature yesterday: 67 °F

Past Weeks' High & Low Weather Summary

 TemperatureHumidityPressure
High88 °F (May 20, 5:00 PM)94% (May 9, 4:00 AM)30.36 "Hg (May 9, 4:00 AM)
Low57 °F (May 13, 5:00 AM)33% (May 20, 5:00 PM)29.98 "Hg (May 11, 2:00 PM)
Average66 °F72%30.19 "Hg
* Reported May 8 6:00 AM — May 23 6:00 AM, Belo Horizonte, Weather by CustomWeather, © 2015

Note: Actual official high and low records may vary slightly from our data, if they occured in-between our weather recording intervals... More about our weather records

Advertising

Belo Horizonte weather history for previous 24 hours

 ConditionsComfort  
Time TempWeatherWind HumidityBarometerVisibility
6:00 AM
Sat, May 23
57 °FClear.3 mph88%30.24 "Hg10 mi
5:00 AM57 °FClear.3 mph88%30.24 "Hg10 mi
4:00 AM57 °FClear.3 mph88%30.24 "Hg10 mi
3:00 AM59 °FClear.3 mph82%30.21 "Hg10 mi
2:00 AM59 °FClear.5 mph82%30.24 "Hg10 mi
1:00 AM59 °FClear.2 mph82%30.24 "Hg10 mi
12:00 AM61 °FClear.6 mph77%30.24 "Hg10 mi
11:00 PM
Fri, May 22
63 °FClear.7 mph73%30.24 "Hg10 mi
10:00 PM64 °FClear.8 mph68%30.27 "Hg10 mi
9:00 PM63 °FClear.8 mph73%30.27 "Hg10 mi
8:00 PM64 °FClear.12 mph68%30.27 "Hg10 mi
7:00 PM68 °FPassing clouds.10 mph56%30.24 "HgN/A
6:00 PM68 °FPassing clouds.9 mph56%30.24 "HgN/A
5:00 PM70 °FScattered clouds.12 mph53%30.24 "HgN/A
4:00 PM72 °FPartly sunny.10 mph50%30.24 "HgN/A
3:00 PM73 °FScattered clouds.7 mph47%30.21 "HgN/A
2:00 PM75 °FPartly sunny.10 mph44%30.24 "HgN/A
1:00 PM75 °FScattered clouds.7 mph44%30.27 "HgN/A
12:00 PM73 °FScattered clouds.7 mph50%30.30 "HgN/A
11:00 AM72 °FScattered clouds.12 mph53%30.33 "HgN/A
10:00 AM70 °FPassing clouds.12 mph53%30.33 "HgN/A
9:00 AM68 °FPassing clouds.10 mph60%30.33 "HgN/A
8:00 AM64 °FSunny.9 mph73%30.33 "Hg10 mi
7:00 AM61 °FSunny.9 mph83%30.30 "Hg10 mi
6:00 AM61 °FClear.10 mph83%30.27 "Hg10 mi
Weather by CustomWeather, © 2015

See weather overviewHow to use our weather pages